Weather Roundup
Issued by NWS

Home | Current Version | Previous Version | Text Only | Print | Product List | Glossary On
Versions: 1 2 3 4 5 6 7 8 9 10 11 12 13 14 15 16 17 18 19 20 21 22 23 24 25 26 27 28 29 30 31 32 33 34 35 36 37 38 39 40 41 42 43 44 45 46 47 48 49 50
000
NZUS93 KARX 232210
HRRWXR

CURRENT HOURLY OBSERVATIONS ACROSS
MUCH OF THE UPPER MISSISSIPPI VALLEY
NATIONAL WEATHER SERVICE LA CROSSE WI
500 PM CDT WED JUL 23 2014


...SOUTHEAST MINNESOTA...


CITY           SKY/WX    TMP DP  RH WIND       PRES   REMARKS
ROCHESTER      MOSUNNY   78  54  43 VRB7      30.22F
ROCHESTER/MAYO FAIR      79  45  30 NW7       30.21S
WINONA         SUNNY     79  54  41 NW10      30.18S
AUSTIN         MOSUNNY   79  50  36 NE9       30.20F
ALBERT LEA     PTSUNNY   79  54  41 N5        30.21F
DODGE CENTER   MOSUNNY   77  54  44 NW5       30.21F
PRESTON        MOSUNNY   76  60  56 N9        30.21S
OWATONNA       SUNNY     79  52  38 N7        30.21F
FARIBAULT      PTSUNNY   84  45  24 NW6       30.20F
$$

...ELSEWHERE IN MINNESOTA...


CITY           SKY/WX    TMP DP  RH WIND       PRES   REMARKS
MINNEAPOLIS    MOSUNNY   82  50  32 NW8       30.19F
INTNL FALLS    PTSUNNY   71  50  47 NE6       30.24F
DULUTH         MOSUNNY   75  52  44 NE7       30.21F
RED WING       PTSUNNY   82  48  30 N6        30.18S
REDWOOD FALLS  MOSUNNY   80  53  39 NE6       30.21F
MANKATO        MOSUNNY   79  52  38 N3        30.20F
WORTHINGTON    SUNNY     77  54  44 N7        30.25F
FAIRMONT       MOSUNNY   81  55  41 N6        30.21F
$$

...SOUTHWEST WISCONSIN...


CITY           SKY/WX    TMP DP  RH WIND       PRES   REMARKS
LA CROSSE      MOSUNNY   81  55  40 NW10      30.16F
PRAIRIE DU CHI SUNNY     79  49  35 NW6       30.16F
BOSCOBEL       SUNNY     82  55  39 VRB6      30.16F
LONE ROCK      SUNNY     82  56  40 NW7       30.15F
PLATTEVILLE    MOSUNNY   78  56  46 N13       30.17F
FORT MC COY    MOSUNNY   78  51  38 N7        30.17F
CAMP DOUGLAS   PTSUNNY   79  59  50 NW6       30.16F
VIROQUA        FAIR      77  56  48 NW8       30.19F
WIS DELLS      MOSUNNY   78  49  36 NW7       30.16F
$$

...ELSEWHERE IN WISCONSIN...


CITY           SKY/WX    TMP DP  RH WIND       PRES   REMARKS
MILWAUKEE      MOSUNNY   64  53  67 NE12G21   30.18S
MADISON        PTSUNNY   78  55  44 N9        30.15F
GREEN BAY      PTSUNNY   73  51  46 NE8       30.17F
EAU CLAIRE     MOSUNNY   81  51  35 N8        30.17F
BLACK RVR FLS  FAIR      79  50  35 N6        30.17F
MEDFORD        MOSUNNY   73  55  52 N6        30.20F
WAUSAU         PTSUNNY   74  51  44 N7        30.17F
WIS RAPIDS     MOSUNNY   78  53  41 N7        30.18F
MARSHFIELD     MOSUNNY   77  55  46 N12       30.18F
RICE LAKE      MOSUNNY   76  52  42 CALM      30.21F
$$

...NORTHEAST IOWA...


CITY           SKY/WX    TMP DP  RH WIND       PRES   REMARKS
WATERLOO       PTSUNNY   80  54  40 N8        30.17F
DUBUQUE        PTSUNNY   74  56  53 N10       30.17F
DECORAH        PTSUNNY   77  55  47 CALM      30.18F
MASON CITY     MOSUNNY   80  59  48 N8        30.21F
CHARLES CITY   PTSUNNY   79  57  47 NW7       30.20F
OELWEIN        MOSUNNY   77  57  50 NE8       30.19F
$$

...ELSEWHERE IN IOWA...


CITY           SKY/WX    TMP DP  RH WIND       PRES   REMARKS
DES MOINES     MOSUNNY   84  58  40 NE13      30.15F
IOWA CITY      MOSUNNY   78  57  48 NE10      30.16F
FORT DODGE     PTSUNNY   79  57  47 E3        30.20F
MARSHALLTOWN   MOSUNNY   80  57  45 N8        30.17F
CEDAR RAPIDS   MOSUNNY   78  55  44 N8        30.15F
$$

...NORTHERN ILLINOIS...


CITY           SKY/WX    TMP DP  RH WIND       PRES   REMARKS
CHICAGO-OHARE  MOSUNNY   69  50  50 NE18G25   30.14S
DUPAGE         MOSUNNY   74  54  49 E15       30.12S
CHICAGO-MIDWAY MOSUNNY   71  53  52 NE16G26   30.13F
MOLINE         MOSUNNY   78  53  41 N10G18    30.13F
ROCKFORD       PTSUNNY   76  52  43 N15       30.15F
STERLING       MOSUNNY   79  57  47 NE10      30.13F
PEORIA         PTSUNNY   79  55  43 NE12      30.11F
$$

NOTE: "FAIR" INDICATES FEW OR NO CLOUDS BELOW 12,000 FEET WITH NO
SIGNIFICANT WEATHER AND/OR OBSTRUCTIONS TO VISIBILITY. WIND
SPEEDS ARE IN MILES-PER-HOUR.



USA.gov is the U.S. government's official web portal to all federal, state and local government web resources and services.